Overview Statistics Trail Chart Weather Telemetry Raw packets
 

This is the latest recevied weather packets stored in our database for station/object KE5QKR. If no packets are shown the sender has not sent any weather packets the latest 10 day(s).

<< 61 62 63 64 65 66 67 >>
Time Temp. Humidity Pressure Rain* Wind** Luminosity Snow
1777560786 20° C 99% 1011.2 hPa 0 mm - 77 W/m² -
1777560484 20° C 99% 1011.4 hPa 0 mm - 95 W/m² -
1777560181 20° C 99% 1011.2 hPa 1.27 mm - 106 W/m² -
1777559878 20° C 99% 1011.2 hPa 1.27 mm - 102 W/m² -
1777559573 20° C 99% 1011.2 hPa 0 mm - 115 W/m² -
1777559271 20° C 99% 1011.1 hPa 0 mm - 60 W/m² -
1777558967 20° C 99% 1011.3 hPa 0 mm - 85 W/m² -
1777558662 19.44° C 99% 1011.2 hPa 0 mm - 134 W/m² -
1777558358 19.44° C 99% 1010.9 hPa 0 mm - 84 W/m² -
1777558055 19.44° C 99% 1011 hPa 0 mm - 73 W/m² -
1777557751 19.44° C 99% 1010.8 hPa 0 mm - 48 W/m² -
1777557448 19.44° C 99% 1011.1 hPa 0 mm - 67 W/m² -
1777557145 19.44° C 99% 1011.1 hPa 0 mm - 50 W/m² -
1777556840 19.44° C 99% 1010.9 hPa 0 mm - 56 W/m² -
1777556537 19.44° C 99% 1010.9 hPa 0 mm - 43 W/m² -
1777556236 19.44° C 99% 1011 hPa 0 mm - 45 W/m² -
1777555932 19.44° C 99% 1010.8 hPa 0 mm - 86 W/m² -
1777555628 20° C 99% 1010.9 hPa 0 mm - 87 W/m² -
1777555325 19.44° C 99% 1010.6 hPa 0 mm - 81 W/m² -
1777555021 19.44° C 99% 1010.7 hPa 0 mm - 56 W/m² -
1777554718 19.44° C 99% 1010.8 hPa 0 mm - 55 W/m² -
1777554415 19.44° C 99% 1010.8 hPa 0 mm - 46 W/m² -
1777554112 19.44° C 99% 1010.7 hPa 0 mm - 67 W/m² -
1777553809 19.44° C 99% 1010.5 hPa 0 mm - 83 W/m² -
1777553505 19.44° C 99% 1010.7 hPa 0 mm - 58 W/m² -

* Rain latest hour (hover to see other rain measurements)
** Current wind speed in m/s (hover to see current wind gust speed)